DW8871 Weather Reports


Display with metric or nautical units.
time (UTC)temp
F
wind
direction
speed
MPH
gust
MPH
rain 1hr
in
rain 24hr
in
rain mn
in
humidity
%
barometer
mb
20260906164536 92 0 1.0 4.0 0.00 0.00 0.00 61 1016.0
20260906163050 91 281 3.0 6.0 0.00 0.00 0.00 60 1016.3
20260906161536 92 207 1.0 4.0 0.00 0.00 0.00 61 1016.3
20260906160036 92 101 1.0 6.0 0.00 0.00 0.00 60 1015.1
20260906154533 90 159 2.0 6.0 0.00 0.00 0.00 64 1016.1
20260906153042 89 181 2.0 4.0 0.00 0.00 0.00 68 1016.0
20260906151535 87 0 1.0 4.0 0.00 0.00 0.00 71 1016.0
20260906150042 87 133 1.0 4.0 0.00 0.00 0.00 72 1014.8
20260906150035 87 119 0.0 4.0 0.00 0.00 0.00 71 1015.9
20260906144538 86 112 0.0 4.0 0.00 0.00 0.00 73 1016.1
20260906143042 84 178 0.0 4.0 0.00 0.00 0.00 75 1016.1
20260906141532 83 146 1.0 4.0 0.00 0.00 0.00 78 1016.2
20260906140042 80 92 1.0 4.0 0.00 0.00 0.00 84 1016.1
20260906140019 81 92 2.0 3.0 0.00 0.00 0.00 84 1015.0
20260906134537 78 188 1.0 4.0 0.00 0.00 0.00 90 1016.1
20260906133034 76 128 0.0 4.0 0.00 0.00 0.00 92 1016.1
20260906131534 75 74 1.0 5.0 0.00 0.00 0.00 94 1015.8
20260906130040 74 74 0.0 2.0 0.00 0.00 0.00 95 1015.7
20260906130031 74 74 0.0 2.0 0.00 0.00 0.00 95 1014.5
20260906124538 73 55 0.0 1.0 0.00 0.00 0.00 95 1015.6
20260906123033 73 0 0.0 1.0 0.00 0.00 0.00 94 1015.3
20260906121535 72 0 0.0 1.0 0.00 0.00 0.00 94 1015.2
20260906120034 72 0 0.0 1.0 0.00 0.00 0.00 94 1015.0
20260906120021 73 286 0.0 0.0 0.00 0.00 0.00 94 1013.9
20260906114536 72 0 0.0 1.0 0.00 0.00 0.00 94 1014.8
20260906113036 72 0 0.0 0.0 0.00 0.00 0.00 94 1014.6
20260906111535 72 0 0.0 0.0 0.00 0.00 0.00 93 1014.5
20260906110033 72 0 0.0 0.0 0.00 0.00 0.00 94 1014.5
20260906110018 73 286 0.0 0.0 0.00 0.00 0.00 94 1013.4
20260906104538 73 0 0.0 0.0 0.00 0.00 0.00 94 1014.4
20260906103035 72 0 0.0 1.0 0.00 0.00 0.00 93 1014.4
20260906101539 72 0 0.0 1.0 0.00 0.00 0.00 93 1014.5
20260906100035 72 0 0.0 0.0 0.00 0.00 0.00 93 1014.5
20260906100031 73 286 0.0 0.0 0.00 0.00 0.00 94 1013.4
20260906094536 73 0 0.0 1.0 0.00 0.00 0.00 93 1014.3
20260906093046 73 0 0.0 0.0 0.00 0.00 0.00 93 1014.2
20260906091536 73 0 0.0 0.0 0.00 0.00 0.00 93 1014.0
20260906090037 73 0 0.0 0.0 0.00 0.00 0.00 93 1014.1
20260906090018 74 286 0.0 0.0 0.00 0.00 0.00 93 1013.0
20260906084542 73 0 0.0 0.0 0.00 0.00 0.00 92 1014.1
20260906083038 74 0 0.0 0.0 0.00 0.00 0.00 92 1013.8
20260906081535 74 0 0.0 0.0 0.00 0.00 0.00 92 1013.8
20260906080044 74 0 0.0 1.0 0.00 0.00 0.00 92 1013.8
20260906080032 75 286 0.0 1.0 0.00 0.00 0.00 92 1012.8
20260906074534 74 0 0.0 0.0 0.00 0.00 0.00 91 1013.8
20260906073036 74 0 0.0 0.0 0.00 0.00 0.00 91 1013.7
20260906071535 74 0 0.0 0.0 0.00 0.00 0.00 90 1013.8
20260906070039 74 0 0.0 0.0 0.00 0.00 0.00 90 1013.9
20260906070029 75 285 0.0 0.0 0.00 0.00 0.00 91 1012.9
20260906064537 75 0 0.0 0.0 0.00 0.00 0.00 90 1014.0
20260906063033 75 0 0.0 0.0 0.00 0.00 0.00 90 1014.1
20260906061539 75 0 0.0 0.0 0.00 0.00 0.00 90 1014.1
20260906060045 76 0 0.0 0.0 0.00 0.00 0.00 90 1014.1
20260906060026 76 285 0.0 0.0 0.00 0.00 0.00 90 1013.1
20260906054535 76 0 0.0 0.0 0.00 0.00 0.00 90 1014.2
20260906053038 76 0 0.0 0.0 0.00 0.00 0.00 89 1014.2
20260906051537 76 0 0.0 0.0 0.00 0.00 0.00 88 1014.3
20260906050035 77 0 0.0 0.0 0.00 0.00 0.00 88 1014.2
20260906050016 77 285 0.0 0.0 0.00 0.00 0.00 88 1013.2
20260906044536 77 0 0.0 0.0 0.00 0.00 0.00 87 1014.2
20260906043036 77 0 0.0 0.0 0.00 0.00 0.00 86 1014.1
20260906041541 78 0 0.0 0.0 0.00 0.00 0.00 85 1014.1
20260906040043 78 0 0.0 0.0 0.00 0.00 0.00 85 1014.0
20260906040026 79 285 0.0 0.0 0.00 0.00 0.00 85 1012.9
20260906034535 79 0 0.0 0.0 0.00 0.00 0.00 84 1013.9
20260906033037 80 0 0.0 0.0 0.00 0.00 0.00 82 1013.7
20260906031534 81 0 0.0 2.0 0.00 0.00 0.00 81 1013.6
20260906030036 82 0 0.0 2.0 0.00 0.00 0.00 78 1013.6
20260906030018 82 288 0.0 2.0 0.00 0.00 0.00 78 1012.3
20260906024536 84 0 0.0 0.0 0.00 0.00 0.00 75 1013.4
20260906023043 85 0 0.0 1.0 0.00 0.00 0.00 71 1013.2
20260906021534 85 0 0.0 1.0 0.00 0.00 0.00 69 1013.1
20260906020038 86 0 0.0 1.0 0.00 0.00 0.00 69 1012.8
20260906020035 86 80 0.0 1.0 0.00 0.00 0.00 69 1011.7
20260906014544 86 0 0.0 0.0 0.00 0.00 0.00 69 1012.6
20260906013036 87 0 0.0 1.0 0.00 0.00 0.00 68 1012.5
20260906011535 87 0 0.0 0.0 0.00 0.00 0.00 65 1012.4
20260906010036 88 0 0.0 1.0 0.00 0.00 0.00 65 1012.2
20260906010024 89 140 0.0 1.0 0.00 0.00 0.00 66 1011.2
20260906004535 89 0 0.0 1.0 0.00 0.00 0.00 64 1012.3
20260906003037 90 0 0.0 0.0 0.00 0.00 0.00 63 1012.3
20260906001533 91 0 0.0 1.0 0.00 0.00 0.00 67 1012.3
20260906000041 93 101 0.0 0.0 0.00 0.00 0.00 64 1011.2
20260906000035 92 0 0.0 2.0 0.00 0.00 0.00 63 1012.3
20260905234537 93 0 0.0 0.0 0.00 0.00 0.00 61 1012.2
20260905233047 95 0 0.0 0.0 0.00 0.00 0.00 62 1012.2
20260905231548 98 0 0.0 3.0 0.00 0.00 0.00 51 1012.1
20260905230039 99 0 0.0 3.0 0.00 0.00 0.00 45 1012.0
20260905230034 99 170 0.0 3.0 0.00 0.00 0.00 46 1011.0
20260905224547 99 0 0.0 3.0 0.00 0.00 0.00 45 1012.1
20260905223034 98 219 1.0 5.0 0.00 0.00 0.00 45 1012.1
20260905221539 99 138 0.0 4.0 0.00 0.00 0.00 45 1012.1
20260905220035 99 0 0.0 5.0 0.00 0.00 0.00 45 1012.3
20260905220030 100 163 1.0 5.0 0.00 0.00 0.00 45 1011.2
20260905214532 98 240 1.0 8.0 0.00 0.00 0.00 45 1012.5
20260905213038 99 0 0.0 5.0 0.00 0.00 0.00 46 1012.8
20260905211536 100 77 0.0 3.0 0.00 0.00 0.00 47 1013.0
20260905210034 98 76 1.0 4.0 0.00 0.00 0.00 48 1013.2
20260905210018 99 76 1.0 4.0 0.00 0.00 0.00 49 1012.0
20260905204535 99 58 0.0 7.0 0.00 0.00 0.00 48 1013.3
20260905203038 98 64 1.0 6.0 0.00 0.00 0.00 49 1013.4
20260905201534 97 0 0.0 3.0 0.00 0.00 0.00 50 1013.7
20260905200036 98 0 0.0 5.0 0.00 0.00 0.00 43 1013.9
20260905200032 98 348 0.0 3.0 0.00 0.00 0.00 44 1012.8
20260905194537 98 257 2.0 8.0 0.00 0.00 0.00 43 1014.0
20260905193037 97 0 0.0 8.0 0.00 0.00 0.00 46 1014.0
20260905191536 98 281 2.0 6.0 0.00 0.00 0.00 47 1014.1
20260905190050 96 321 1.0 9.0 0.00 0.00 0.00 46 1014.3
20260905190031 97 322 1.0 8.0 0.00 0.00 0.00 46 1013.0
20260905184546 96 302 2.0 6.0 0.00 0.00 0.00 49 1014.4
20260905183039 97 0 2.0 5.0 0.00 0.00 0.00 45 1014.6
20260905181535 96 0 0.0 7.0 0.00 0.00 0.00 49 1014.7
20260905180035 95 0 1.0 6.0 0.00 0.00 0.00 49 1015.1
20260905180018 95 105 1.0 5.0 0.00 0.00 0.00 49 1013.9
20260905174544 94 301 0.0 3.0 0.00 0.00 0.00 54 1015.2
20260905173038 95 0 0.0 4.0 0.00 0.00 0.00 53 1015.3
20260905171533 94 253 1.0 4.0 0.00 0.00 0.00 53 1015.5
20260905170035 94 0 1.0 3.0 0.00 0.00 0.00 57 1015.7
20260905170015 94 285 1.0 3.0 0.00 0.00 0.00 57 1014.5